Meteo pe oră la Bolshoe Mozheykovo

Astăzi, 12 Mai, Miercuri

Timp Temperatura Precipitaţii Vânt Presiune Umiditate
00:00 +11°C° 0 mm 4 m/s 749 mmHg 77%
01:00 +11°C° 0 mm 4 m/s 749 mmHg 81%
02:00 +11°C° 0 mm 4 m/s 749 mmHg 84%
03:00 +11°C° 0 mm 3 m/s 749 mmHg 87%
04:00 +11°C° 0 mm 3 m/s 749 mmHg 89%
05:00 +10°C° 0 mm 3 m/s 749 mmHg 92%
06:00 +12°C° 0 mm 4 m/s 748 mmHg 87%
07:00 +14°C° 0 mm 5 m/s 748 mmHg 82%
08:00 +16°C° 0 mm 5 m/s 748 mmHg 77%
09:00 +17°C° 0 mm 6 m/s 748 mmHg 72%
10:00 +18°C° 0 mm 7 m/s 748 mmHg 67%
11:00 +18°C° 0 mm 7 m/s 748 mmHg 62%
12:00 +18°C° 0 mm 7 m/s 748 mmHg 58%
13:00 +18°C° 0 mm 7 m/s 748 mmHg 54%
14:00 +18°C° 0 mm 7 m/s 748 mmHg 50%
15:00 +18°C° 0 mm 7 m/s 748 mmHg 53%
16:00 +17°C° 0 mm 6 m/s 748 mmHg 55%
17:00 +17°C° 0 mm 6 m/s 747 mmHg 58%
18:00 +15°C° 0 mm 5 m/s 747 mmHg 64%
19:00 +14°C° 0 mm 4 m/s 747 mmHg 69%
20:00 +12°C° 0 mm 3 m/s 747 mmHg 75%
21:00 +11°C° 0 mm 3 m/s 746 mmHg 77%
22:00 +10°C° 0 mm 3 m/s 746 mmHg 78%
23:00 +9°C° 0 mm 3 m/s 745 mmHg 80%

Mâine, 13 Mai, Joi

Timp Temperatura Precipitaţii Vânt Presiune Umiditate
00:00 +9°C° 0 mm 2 m/s 745 mmHg 82%
01:00 +8°C° 0 mm 2 m/s 744 mmHg 84%
02:00 +9°C° 0 mm 1 m/s 744 mmHg 86%
03:00 +9°C° 0 mm 1 m/s 743 mmHg 84%
04:00 +10°C° 0 mm 1 m/s 743 mmHg 81%
05:00 +10°C° 0 mm 1 m/s 742 mmHg 79%
06:00 +10°C° 0.7 mm 1 m/s 742 mmHg 83%
07:00 +10°C° 0.7 mm 1 m/s 742 mmHg 86%
08:00 +10°C° 0.7 mm 1 m/s 741 mmHg 90%
09:00 +9°C° 1.3 mm 2 m/s 741 mmHg 91%
10:00 +9°C° 1.3 mm 3 m/s 741 mmHg 92%
11:00 +7°C° 1.3 mm 4 m/s 740 mmHg 93%
12:00 +8°C° 0.7 mm 4 m/s 740 mmHg 93%
13:00 +8°C° 0.7 mm 4 m/s 740 mmHg 93%
14:00 +8°C° 0.7 mm 4 m/s 740 mmHg 92%
15:00 +8°C° 0.7 mm 4 m/s 740 mmHg 92%
16:00 +8°C° 0.7 mm 4 m/s 740 mmHg 92%
17:00 +8°C° 0.7 mm 4 m/s 740 mmHg 92%
18:00 +8°C° 0.3 mm 4 m/s 740 mmHg 92%
19:00 +8°C° 0.3 mm 4 m/s 739 mmHg 93%
20:00 +8°C° 0.3 mm 5 m/s 739 mmHg 94%
21:00 +8°C° 0.1 mm 5 m/s 739 mmHg 94%
22:00 +10°C° 0.1 mm 4 m/s 739 mmHg 94%
23:00 +10°C° 0.1 mm 4 m/s 739 mmHg 94%

Poimâine, 14 Mai, Vineri

Timp Temperatura Precipitaţii Vânt Presiune Umiditate
00:00 +10°C° 0.4 mm 4 m/s 739 mmHg 95%
01:00 +10°C° 0.4 mm 4 m/s 738 mmHg 96%
02:00 +10°C° 0.4 mm 4 m/s 738 mmHg 97%
03:00 +10°C° 0.4 mm 4 m/s 738 mmHg 97%
04:00 +9°C° 0.4 mm 5 m/s 738 mmHg 96%
05:00 +10°C° 0.4 mm 5 m/s 738 mmHg 96%
06:00 +10°C° 0.2 mm 5 m/s 738 mmHg 96%
07:00 +10°C° 0.2 mm 5 m/s 738 mmHg 96%
08:00 +10°C° 0.2 mm 5 m/s 738 mmHg 96%
09:00 +10°C° 0.2 mm 5 m/s 739 mmHg 95%
10:00 +10°C° 0.2 mm 5 m/s 739 mmHg 95%
11:00 +12°C° 0.2 mm 5 m/s 739 mmHg 95%
12:00 +12°C° 0.1 mm 5 m/s 739 mmHg 93%
13:00 +13°C° 0.1 mm 5 m/s 739 mmHg 90%
14:00 +13°C° 0.1 mm 4 m/s 740 mmHg 88%
15:00 +14°C° 0.2 mm 4 m/s 740 mmHg 87%
16:00 +14°C° 0.2 mm 3 m/s 740 mmHg 86%
17:00 +14°C° 0.2 mm 3 m/s 740 mmHg 86%
18:00 +13°C° 0.1 mm 3 m/s 740 mmHg 88%
19:00 +12°C° 0.1 mm 3 m/s 740 mmHg 91%
20:00 +12°C° 0.1 mm 3 m/s 740 mmHg 93%
21:00 +11°C° 0 mm 3 m/s 740 mmHg 94%
22:00 +10°C° 0 mm 3 m/s 740 mmHg 95%
23:00 +10°C° 0 mm 3 m/s 740 mmHg 97%

15 Mai, Sâmbătă

Timp Temperatura Precipitaţii Vânt Presiune Umiditate
00:00 +10°C° 0.1 mm 3 m/s 740 mmHg 97%
01:00 +10°C° 0.1 mm 4 m/s 740 mmHg 97%
02:00 +10°C° 0.1 mm 4 m/s 740 mmHg 97%
03:00 +10°C° 0 mm 4 m/s 740 mmHg 97%
04:00 +10°C° 0 mm 4 m/s 740 mmHg 96%
05:00 +10°C° 0 mm 4 m/s 740 mmHg 96%
06:00 +10°C° 0.1 mm 4 m/s 741 mmHg 95%
07:00 +8°C° 0.1 mm 4 m/s 741 mmHg 95%
08:00 +8°C° 0.1 mm 5 m/s 741 mmHg 94%
09:00 +10°C° 0.1 mm 4 m/s 742 mmHg 91%
10:00 +11°C° 0.1 mm 4 m/s 742 mmHg 88%
11:00 +11°C° 0.1 mm 4 m/s 742 mmHg 86%
12:00 +13°C° 0 mm 4 m/s 742 mmHg 78%
13:00 +14°C° 0 mm 5 m/s 742 mmHg 70%
14:00 +16°C° 0 mm 5 m/s 742 mmHg 63%
15:00 +16°C° 0 mm 5 m/s 742 mmHg 63%
16:00 +17°C° 0 mm 4 m/s 742 mmHg 63%
17:00 +17°C° 0 mm 4 m/s 742 mmHg 63%
18:00 +16°C° 0 mm 3 m/s 742 mmHg 69%
19:00 +14°C° 0 mm 2 m/s 743 mmHg 75%
20:00 +13°C° 0 mm 1 m/s 743 mmHg 81%
21:00 +12°C° 0 mm 1 m/s 743 mmHg 83%
22:00 +11°C° 0 mm 1 m/s 743 mmHg 86%
23:00 +10°C° 0 mm 1 m/s 744 mmHg 89%

16 Mai, Duminică

Timp Temperatura Precipitaţii Vânt Presiune Umiditate
00:00 +10°C° 0 mm 1 m/s 744 mmHg 89%
01:00 +9°C° 0 mm 1 m/s 744 mmHg 90%
02:00 +9°C° 0 mm 1 m/s 744 mmHg 90%
03:00 +9°C° 0 mm 1 m/s 744 mmHg 91%
04:00 +9°C° 0 mm 1 m/s 744 mmHg 91%
05:00 +9°C° 0 mm 1 m/s 745 mmHg 91%
06:00 +11°C° 0 mm 1 m/s 745 mmHg 87%
07:00 +12°C° 0 mm 1 m/s 745 mmHg 83%
08:00 +14°C° 0 mm 1 m/s 745 mmHg 78%
09:00 +15°C° 0 mm 2 m/s 745 mmHg 76%
10:00 +16°C° 0 mm 2 m/s 745 mmHg 73%
11:00 +17°C° 0 mm 3 m/s 745 mmHg 71%
12:00 +18°C° 0 mm 3 m/s 745 mmHg 67%
13:00 +19°C° 0 mm 3 m/s 745 mmHg 62%
14:00 +20°C° 0 mm 3 m/s 745 mmHg 58%
15:00 +20°C° 0.1 mm 4 m/s 745 mmHg 61%
16:00 +20°C° 0.1 mm 4 m/s 744 mmHg 65%
17:00 +19°C° 0.1 mm 4 m/s 744 mmHg 68%
18:00 +18°C° 0.1 mm 4 m/s 744 mmHg 73%
19:00 +17°C° 0.1 mm 4 m/s 744 mmHg 78%
20:00 +14°C° 0.1 mm 4 m/s 744 mmHg 82%
21:00 +14°C° 0 mm 4 m/s 744 mmHg 85%
22:00 +13°C° 0 mm 4 m/s 744 mmHg 87%
23:00 +12°C° 0 mm 4 m/s 743 mmHg 89%

17 Mai, Luni

Timp Temperatura Precipitaţii Vânt Presiune Umiditate
00:00 +12°C° 0 mm 4 m/s 743 mmHg 89%
01:00 +12°C° 0 mm 4 m/s 743 mmHg 88%
02:00 +12°C° 0 mm 4 m/s 743 mmHg 88%
03:00 +12°C° 0 mm 4 m/s 743 mmHg 89%
04:00 +12°C° 0 mm 4 m/s 742 mmHg 90%
05:00 +12°C° 0 mm 4 m/s 742 mmHg 92%
06:00 +12°C° 0.8 mm 3 m/s 742 mmHg 93%
07:00 +12°C° 0.8 mm 3 m/s 741 mmHg 94%
08:00 +13°C° 0.8 mm 2 m/s 741 mmHg 95%
09:00 +13°C° 2.8 mm 2 m/s 741 mmHg 95%
10:00 +13°C° 2.8 mm 2 m/s 741 mmHg 96%
11:00 +13°C° 2.8 mm 1 m/s 740 mmHg 97%
12:00 +14°C° 0.2 mm 1 m/s 740 mmHg 94%
13:00 +14°C° 0.2 mm 1 m/s 740 mmHg 92%
14:00 +15°C° 0.2 mm 1 m/s 740 mmHg 89%
15:00 +16°C° 0 mm 1 m/s 740 mmHg 84%
16:00 +17°C° 0 mm 2 m/s 740 mmHg 79%
17:00 +18°C° 0 mm 2 m/s 740 mmHg 75%
18:00 +16°C° 0 mm 2 m/s 740 mmHg 80%
19:00 +15°C° 0 mm 2 m/s 740 mmHg 85%
20:00 +14°C° 0 mm 2 m/s 740 mmHg 90%
21:00 +14°C° 0 mm 2 m/s 741 mmHg 92%
22:00 +13°C° 0 mm 2 m/s 741 mmHg 93%
23:00 +12°C° 0 mm 2 m/s 741 mmHg 95%
Arată mai mult

Formular de consimțământ

Meteoprog și furnizorii noștri de servicii pot stoca și accesa date personale, precum cookies, identificatori de dispozitiv sau alte tehnologii similare pe dispozitivul dumneavoastră și procesa astfel de date pentru a personaliza conținutul și reclamele, dar și pentru a oferi caracteristici de social media și pentru a analiza traficul.

  • Stocarea și/sau accesarea informațiilor pe dispozitivul dumneavoastră

    Cookies, identificatori de dispozitiv sau alte informații pot fi stocate sau accesate pe dispozitiv în scopurile indicate mai sus.

  • Reclame și conținut personalizat, evaluarea reclamelor și a conținutului, informații despre audiențe și dezvoltarea produselor

    Reclamele și conținutul pot fi personalizate pe baza unui profil. Pot fi adăugate date suplimentare pentru a personaliza mai bine reclamele și conținutul. Performanța reclamelor și conținutului poate fi măsurată. Pot fi obținute informații despre utilizatorii care au văzut reclamele și conținutul. Aceste date pot fi utilizate pentru a dezvolta sau îmbunătăți experiența utilizatorilor, sistemele și software-ul.

Dând clic pe ‘Sunt de acord’, permiteți utilizarea cookie-urilor menționate, a identificatorilor de dispozitiv, balizelor web sau altor tehnologii similare. Setările pot fi modificate din browser-ul dispozitivului dumneavoastră.

În anumite scopuri, interesele legitime pot prima asupra consimțământului. Puteți citi mai multe informații în acest sens în Politica privind Confidențialitatea Datelor și Cookie.